Regional Weather Roundup
Issued by NWS

Home | Current Version | Previous Version | Graphics & Text | Print | Product List | Glossary On
Versions: 1 2 3 4 5 6 7 8 9 10 11 12 13 14 15 16 17 18 19 20 21 22 23 24 25 26 27 28 29 30 31 32 33 34 35 36 37 38 39 40 41 42 43 44 45 46 47 48 49 50
871
ASUS45 KSLC 210910
RWRUT

UTAH REGIONAL WEATHER ROUNDUP
NATIONAL WEATHER SERVICE SALT LAKE CITY UT
300 AM MDT SAT OCT 21 2017

UTZ001>011-023>025-211000-

NORTHERN UTAH

CITY           SKY/WX    TMP DP  RH WIND       PRES   REMARKS
BRIGHAM CITY   CLEAR     32  24  73 CALM      30.06S
HILL AFB       MOCLDY    37  25  61 CALM      30.05S
LOGAN          PTCLDY    36  28  73 CALM      30.05R
OGDEN          PTCLDY    35  27  72 S7        30.05R WCI  29
SALT LAKE CITY MOCLDY    42  30  62 SW3       30.06R
TOOELE VALLEY  PTCLDY    30  23  74 SE6       30.08R WCI  24
WENDOVER       PTCLDY    36  22  56 S6        30.09R WCI  31
WEST JORDAN    CLOUDY    38  28  67 NW7       30.08R WCI  33

$$

UTZ011>015-024>027-211000-

CENTRAL/NORTHEAST UTAH

CITY           SKY/WX    TMP DP  RH WIND       PRES   REMARKS
PROVO AIRPORT  PTCLDY    37  27  67 NW8       30.07R WCI  31
MOAB/CANYONLAN PTCLDY    45  14  28 W15       29.98R
DELTA          PTCLDY    28  18  64 S5        30.08S WCI  23
PRICE          MOCLDY    34  18  52 N6        30.02R WCI  29
ROOSEVELT      CLEAR     39  14  35 W6        30.02R WCI  35
VERNAL         CLEAR     33  16  49 CALM      30.00R

$$

UTZ013>016-019>022-027-211000-

SOUTHERN UTAH

CITY           SKY/WX    TMP DP  RH WIND       PRES   REMARKS
BRYCE CANYON   PTCLDY    28  17  63 NW13      30.04R WCI  17
CEDAR CITY     PTCLDY    29  16  58 NE3       30.05R
MILFORD        PTCLDY    29  15  56 N5        30.07R WCI  24
ST GEORGE      PTSUNNY   55  17  22 VRB7      29.98R
HANKSVILLE     PTCLDY    45  18  33 NW8       30.03R
BLANDING         N/A     44  18  35 NW8       30.03R

$$

REGIONAL REPORTS     COLORADO/ARIZONA

CITY           SKY/WX    TMP DP  RH WIND       PRES   REMARKS
CRAIG, CO      CLOUDY    32  25  75 W3        30.01R
GRAND JUNCTION PTCLDY    40  15  36 N3        29.96R
RIFLE, CO      MOCLDY    39  31  72 W8        29.99R WCI  33
MONTROSE, CO   CLOUDY    46  15  28 NW9G17    29.97R
CORTEZ, CO     CLOUDY    48  21  34 N12G21    29.95R
COLORADO CITY    N/A     41  18  38 E6        30.00S
PAGE, AZ       CLEAR     52  20  28 W6        29.94R
GRAND CANYON   CLEAR     39  30  70 NE3       30.01R
KINGMAN, AZ    CLEAR     50  27  40 E8        29.94R
FLAGSTAFF, AZ  CLEAR     39  35  86 CALM      30.01F

$$

REGIONAL REPORTS    NEVADA/IDAHO/WYOMING

CITY           SKY/WX    TMP DP  RH WIND       PRES   REMARKS
LAS VEGAS, NV  CLEAR     64   9  11 N15       29.95R
ELY, NY        MOCLDY    17   8  67 S7        30.11R WCI   8
ELKO, NV       PTCLDY    23  18  81 CALM      30.11R
POCATELLO, ID  CLEAR     35  29  78 SW17      30.02R WCI  25
BURLEY, ID     PTCLDY    36  29  75 SW10      30.05R WCI  28
FORT BRIDGER,    N/A     27  21  78 W10       30.04R WCI  17
EVANSTON, WY   CLOUDY    27  20  75 SW3       30.03R
ROCK SPRINGS,  CLEAR     27  18  69 W17       29.97R WCI  14
KEMMERER, WY   CLOUDY    27  21  80 W10       29.99  WCI  17

$$




USA.gov is the U.S. government's official web portal to all federal, state and local government web resources and services.